カタログに戻る

STARLINK-4002

運用中通信VLEO
NORAD 52612·PAYLOAD·🇺🇸 United States

打ち上げ May 14, 2022 から Cape Canaveral Space Force Station

Loading…

次のパス (今後24時間)

TLE

最新Source: CelesTrak SupGP

元期: Sep 15, 2026, 01:13 UTC

1 52612C 22052Q   26258.05118056  .00026050  00000+0  76955-3 0  2581
2 52612  53.1576 140.8528 0001276  76.1302  13.3072 15.34382389    11

AllMySatでSTARLINK-4002をリアルタイム追跡

Download on the App Store